SL-16 DEB, 22494

Orbit data source: Space-Track

SL-16 DEB, 22494 is space debris in LEO originally from a launch on Fri, 25 Dec 1992 UTC launched from the Tyuratam Missile And Space Complex (TTMTR). Debris objects in space refer to the collection of defunct objects orbiting the Earth. Examples of debris include non-operational satellites, rocket bodies, and fragments generated from explosions, collisions, or faulty payload assembly.

Loading next visibility...
Identifier
22494, 1992-093GD
Orbit
LEO
Country
Flag of CISCIS
Related business
Manufacturer
Unknown
Mission
Spacecraft
Bus & Motor
Unknown
Mass
Unknown
Launch date (UTC)
1992-12-25 (33 years ago)
Launch vehicle
Unknown
Launch site
Tyuratam Missile And Space Complex (TTMTR)
Object type
Payload
Rocket body
Debris
Shape & HBR
Unknown shape, 0.1 m
Radar Cross Section
Small (<0.1 m²)

Expand to show TLE details & history
Last TLE update: 1 day ago

TLE from 1 day ago
0 SL-16 DEB
1 22494U 92093GD  26126.22386297  .00002780  00000-0  13623-2 0  9994
2 22494  70.8099 173.2135 0148527 130.8500 300.0059 14.13073971683282
Epoch: 2026-05-06T05:22Z
TLE epoch observation values (Epoch: 2026-05-06T05:22:21.760Z)
Latitude
62.2197°
Longitude
-90.38086°
Altitude
806.505 km
Speed
7.483 km/s
True Right ascension
14h 17m 11s
True Declination
62° 04' 43"
Sunlit
Object was in daylight at epoch
Visualization orbit readout
Latitude
Unknown
Longitude
Unknown
Altitude
Unknown
Speed
Unknown
Apparent Right ascension
Unknown
Apparent Declination
Unknown
Sunlit
N/A
Visualization observer readout
Local Sidereal Time
15:28:18
Azimuth
Unknown
Elevation
Unknown
Doppler factor
Unknown
Orbital elements
Apogee altitude
954.127 km
Perigee altitude
739.506 km
Semi-major axis
7,224.954 km
Eccentricity
0.01485
Inclination
70.8099°
RAAN
173.2135°
Arg. of periapsis
130.85°
True anomaly
298.51838°
Mean anomaly
300.0059°
Eccentric anomaly
299.26351°
Mean motion
3.5342 °/min
Orbital period
101.86 mins
BSTAR
0.0013623
Loading maneuver chart data...
Computing Atmospheric mass density...
Loading historical data...
Loading historical data...
Loading historical data...
Loading historical data...
Loading historical data...
Loading historical data...
Loading historical data...

Documentation

Showing up to 5 results
|